Temperature
29 30 30 29 30 30 30 30 31 31 31 31 30 30 29 28 27 26 26 25 24 24 23 22 22 22 22 21 21 21 21 20 20 19 19 19 18 18 18 17 16 16 16 16
28 29 29 29 29 29 29 30 30 30 30 30 29 29 28 27 26 26 25 25 24 23 23 22 22 21 21 21 21 21 21 20 20 20 19 19 18 18 17 17 16 16 16 15
27 28 28 28 29 29 29 29 30 29 30 29 29 28 27 26 26 25 25 24 24 23 23 22 22 22 22 22 21 21 21 20 20 20 19 19 18 17 17 17 16 16 15 15
27 26 26 28 28 29 28 28 29 29 29 28 28 27 26 25 25 25 24 24 23 23 22 22 22 22 22 21 21 21 21 20 20 20 19 18 18 17 17 16 16 16 15 15
26 26 27 27 27 27 27 27 27 27 27 27 26 27 26 24 24 23 23 23 23 23 23 22 22 22 21 21 21 21 20 20 20 20 19 18 18 17 17 16 16 15 15 15
25 25 26 27 27 26 27 26 26 26 26 26 26 28 27 23 23 22 22 22 22 22 22 22 21 21 21 20 20 20 20 20 20 19 19 18 18 17 17 16 16 15 15 15
25 25 26 26 25 25 25 25 24 24 24 24 25 25 23 22 22 21 21 22 22 22 22 21 21 21 20 20 20 20 20 19 19 19 18 18 17 17 16 16 15 15 15 15
24 24 25 24 25 25 24 23 23 23 23 22 22 21 21 21 21 21 21 21 21 21 21 21 20 20 20 20 20 20 19 19 19 18 18 17 17 16 16 16 15 15 14 14
24 24 22 22 22 21 21 21 21 22 21 21 21 21 20 20 20 20 20 20 20 20 20 20 20 20 20 20 19 19 19 18 18 17 17 17 16 16 16 15 15 14 14 14
22 22 22 21 20 20 20 20 20 20 20 20 20 20 19 19 19 19 19 20 20 20 20 19 19 19 19 19 19 19 18 18 17 17 16 16 16 16 15 15 15 14 14 14
21 21 21 20 20 19 19 19 19 19 19 19 19 19 19 18 18 18 18 18 19 19 19 19 18 18 18 18 18 18 18 17 17 16 16 16 15 15 15 15 15 14 14 14
21 20 21 20 19 19 18 18 18 18 18 18 18 18 18 18 18 18 18 18 18 18 18 18 18 18 18 18 18 18 17 17 16 16 16 15 15 15 15 14 14 14 14 14
19 18 18 18 18 18 18 18 18 18 17 17 17 17 17 17 17 17 17 17 17 17 17 17 17 17 17 17 17 17 17 17 16 16 15 15 15 15 14 14 14 14 14 14
17 16 17 17 17 17 17 17 17 17 17 17 17 17 17 17 17 17 17 17 17 17 17 17 17 16 16 16 16 16 16 16 16 15 15 15 15 15 14 14 14 14 14 14
16 16 16 16 16 16 16 16 16 16 16 16 16 16 16 16 16 16 16 16 16 17 16 16 16 16 16 16 16 16 15 15 15 15 15 15 15 14 15 14 14 14 14 14
15 15 16 16 16 15 16 16 16 16 16 16 16 15 15 15 15 16 15 16 16 16 16 16 16 16 16 15 16 16 15 15 15 14 14 14 14 14 14 14 14 14 14 13
15 15 15 15 15 15 15 15 15 15 15 15 15 15 15 15 15 15 15 15 15 15 15 15 15 15 15 15 15 15 15 14 14 14 14 14 14 14 14 14 14 14 13 13
15 14 14 14 14 14 14 14 14 14 14 14 14 14 14 14 14 14 14 15 15 14 14 14 14 14 14 14 14 14 14 14 14 14 14 13 13 14 14 14 14 13 13 13
14 14 14 13 13 13 13 13 14 14 14 14 14 14 14 14 14 14 14 14 14 14 14 14 14 14 14 14 14 14 13 13 13 13 13 13 13 13 13 13 13 13 13 12
13 13 13 13 13 13 13 13 13 13 13 13 13 13 13 13 13 13 13 13 13 13 13 13 13 13 13 13 13 13 13 13 13 13 13 13 13 13 13 13 13 13 12 12
13 13 13 12 12 12 12 13 13 13 13 13 13 13 13 13 13 13 13 13 13 13 13 13 12 12 13 13 13 13 13 13 13 13 13 12 12 12 12 12 12 12 12 12
12 12 12 12 12 12 12 12 12 12 12 12 12 12 12 12 12 12 12 12 12 12 12 12 12 12 12 12 13 13 13 13 13 13 12 12 12 12 12 12 12 12 12 12
12 12 11 11 11 11 11 11 11 11 11 12 12 12 12 12 12 12 12 12 12 12 12 12 12 12 12 12 12 12 12 12 12 12 12 12 12 12 12 12 12 12 11 11
11 11 11 11 11 11 11 11 11 11 11 11 11 11 11 11 11 11 11 11 11 11 11 11 11 11 12 11 11 12 12 12 12 12 12 12 12 12 12 11 11 11 11 11
11 11 11 11 11 11 11 10 10 10 10 10 10 11 11 11 11 11 11 11 11 11 11 11 11 11 11 11 11 11 12 12 12 12 12 12 12 11 11 11 11 11 11 11
10 10 10 10 10 10 10 10 10 10 10 10 10 10 10 10 10 10 10 10 10 10 10 10 10 11 11 11 11 11 11 11 11 11 11 11 11 11 11 11 11 11 10 10
10 10 10 10 10 10 10 10 10 10 10 10 10 10 10 10 10 10 10 10 10 10 10 10 10 10 10 10 10 10 11 11 11 11 11 10 10 10 10 10 10 10 10 10
Wind_Speed
10 7 9 12 14 15 16 15 14 12 11 7 4 3 3 3 4 6 7 8 9 10 11 11 11 11 11 11 11 11 11 10 9 8 7 7 6 6 5 4 4 4 4 3
12 10 11 13 14 14 15 14 14 12 10 5 4 2 2 2 4 5 6 7 8 10 11 12 11 11 11 11 11 11 11 10 10 9 9 8 7 6 5 5 4 4 4 4
13 11 12 16 14 14 14 12 12 13 9 5 4 3 2 2 3 4 4 5 7 9 11 11 12 12 12 12 12 12 11 11 10 10 10 9 8 7 6 6 5 5 4 4
11 10 16 9 5 9 11 10 9 8 6 4 5 4 2 2 2 3 3 4 6 7 9 10 11 11 11 12 12 13 12 11 11 11 10 9 8 8 7 6 6 6 5 5
11 15 13 7 5 7 10 10 6 6 5 3 3 4 4 1 1 2 2 2 3 6 8 10 11 11 11 12 12 12 12 12 12 11 11 10 9 9 7 7 6 6 5 5
11 14 15 8 6 4 7 10 4 4 4 3 3 7 3 3 4 3 2 1 2 5 7 9 10 11 12 12 12 12 12 12 11 11 10 10 10 9 8 7 7 6 6 5
14 13 9 3 4 6 10 5 2 2 3 3 3 4 4 4 3 2 2 1 2 5 7 8 9 10 11 11 11 10 10 10 10 10 10 10 9 9 9 8 7 6 6 6
12 13 9 3 5 5 1 2 0 1 1 2 2 2 3 4 3 2 2 1 2 4 5 6 8 9 10 9 9 9 9 10 10 10 9 9 10 9 8 8 8 7 7 6
6 4 3 2 1 0 1 1 1 1 2 2 2 3 3 3 3 2 2 1 1 3 4 5 6 8 8 8 8 8 9 10 10 10 9 9 10 10 8 8 7 7 7 7
5 4 2 2 1 1 2 2 3 2 2 2 2 3 3 3 3 3 3 1 1 3 4 4 5 6 6 7 8 8 9 9 9 9 9 9 8 8 8 8 8 8 8 7
7 5 4 4 3 2 2 3 3 2 2 2 2 2 2 3 3 3 2 1 1 3 3 4 5 5 6 7 8 8 8 8 9 9 8 8 7 5 6 6 6 7 7 8
6 3 4 4 3 4 3 4 3 3 3 3 2 2 2 2 2 3 3 2 0 2 3 4 4 5 5 7 7 8 8 8 7 8 8 8 7 6 2 1 3 3 2 3
6 5 5 5 5 4 4 3 3 3 3 3 3 2 2 3 3 3 3 2 1 2 3 4 4 5 5 6 7 7 6 7 7 7 8 8 8 7 6 4 3 4 4 4
5 5 6 6 5 4 3 3 3 3 3 3 2 2 2 2 3 3 3 2 2 2 3 4 4 5 5 5 6 6 6 6 6 7 7 7 7 7 7 7 7 6 7 8
5 6 6 4 4 4 3 3 3 3 3 2 2 2 3 3 3 3 3 2 2 3 3 3 4 4 5 6 6 6 6 5 5 5 6 7 7 7 8 8 7 7 6 7
5 5 5 5 4 4 4 4 3 3 3 3 3 3 3 3 3 3 2 1 2 2 3 3 4 4 5 6 6 6 5 6 6 6 6 6 7 7 8 8 8 7 7 7
5 5 4 4 4 5 5 4 3 4 3 3 3 3 3 3 2 2 2 1 1 2 2 3 3 3 5 6 6 5 5 6 7 7 6 6 7 7 7 7 7 7 7 7
6 5 4 4 4 4 5 5 4 4 4 3 3 3 3 3 3 2 1 1 0 1 1 2 2 3 4 5 5 4 5 5 6 6 6 6 7 7 7 7 7 7 6 6
5 5 4 4 4 4 4 4 4 4 4 4 4 3 3 3 2 1 1 1 1 2 2 1 2 3 4 5 5 5 6 6 6 6 6 6 7 7 7 8 7 7 7 7
3 3 4 4 4 4 4 4 4 4 4 4 3 3 3 3 2 2 1 1 2 2 2 1 2 3 4 5 5 5 6 6 6 6 6 7 7 7 7 8 7 7 8 8
2 3 3 3 3 3 3 4 4 4 3 3 3 3 3 3 2 2 2 2 1 1 1 1 2 2 3 3 5 6 6 6 6 6 6 7 7 7 7 7 7 7 7 7
2 2 2 3 3 3 2 3 3 3 3 3 3 2 2 2 2 2 1 1 1 1 1 2 1 1 2 3 5 5 6 6 6 6 6 6 6 7 7 7 7 7 6 7
1 1 1 2 2 2 1 2 2 2 2 2 2 2 2 2 2 2 2 1 1 1 1 1 1 1 3 3 3 4 5 5 5 5 5 6 6 6 6 7 6 5 5 5
1 0 0 0 0 0 1 1 0 1 1 1 0 0 1 1 1 1 1 1 1 1 1 1 1 2 4 2 2 3 3 4 4 5 4 4 4 4 5 5 5 5 5 6
1 1 1 1 1 0 1 1 1 1 1 1 1 1 1 1 0 1 1 1 2 1 1 1 1 3 2 1 1 2 2 1 2 2 3 3 3 4 4 4 4 5 5 5
1 1 1 1 1 1 1 1 0 1 1 1 2 2 2 2 2 1 2 3 4 3 2 1 1 1 1 1 0 0 0 1 1 2 1 1 2 2 2 2 3 3 3 3
2 2 2 2 2 1 1 1 2 1 1 1 2 2 2 2 2 3 3 3 3 2 2 2 2 2 2 2 2 2 1 1 1 1 1 1 1 1 1 1 1 1 1 1
Wind_Direction
239 234 219 219 218 217 228 240 247 244 245 252 254 249 225 199 189 186 185 184 186 184 179 177 177 179 181 179 177 175 176 177 176 172 165 162 162 163 163 163 155 143 136 124
224 224 226 229 227 226 230 238 243 249 247 255 263 257 227 204 194 196 196 193 190 187 181 180 179 180 181 178 175 174 176 175 169 166 165 167 165 163 159 155 148 143 143 133
224 216 225 230 226 226 226 232 241 242 246 253 247 249 246 228 219 215 210 203 195 192 188 183 183 181 180 177 172 172 175 172 169 169 169 168 164 159 156 154 149 143 140 129
225 213 231 231 214 224 223 228 239 251 260 258 260 257 239 226 241 244 235 220 201 192 190 185 183 182 180 174 174 175 176 175 174 173 171 168 167 163 160 155 151 148 147 145
224 224 228 206 194 210 218 221 227 245 258 268 277 237 198 86 333 278 262 234 208 198 191 181 181 180 176 176 178 179 180 180 178 175 172 172 172 167 162 160 160 161 157 158
225 234 234 209 179 206 227 220 195 231 249 256 253 240 215 12 335 321 310 246 187 191 182 177 179 176 177 179 182 186 185 182 178 175 176 176 169 165 164 166 167 168 158 158
226 233 235 182 178 192 221 217 160 224 245 248 248 299 337 329 322 333 326 303 171 175 175 174 174 175 180 182 187 187 181 176 175 175 175 172 166 167 167 170 169 171 163 163
224 232 226 139 187 215 254 25 120 251 275 288 304 324 332 334 332 349 8 20 151 162 164 167 172 175 179 185 185 175 172 174 175 175 174 168 167 170 172 172 173 174 174 176
230 229 88 99 147 45 309 311 331 327 336 326 309 315 332 338 339 342 358 31 135 160 153 156 173 179 183 179 178 171 171 175 176 177 175 171 172 173 176 183 189 187 185 185
229 212 198 186 202 281 284 297 306 304 302 303 306 329 339 344 344 342 344 12 144 161 157 158 169 178 181 175 172 170 174 175 176 176 175 174 179 181 186 192 197 196 195 194
233 232 233 219 238 265 290 300 295 298 300 301 311 320 330 336 337 338 339 336 167 172 173 167 167 175 172 166 168 171 175 177 179 179 179 180 183 188 195 202 210 211 202 195
239 231 244 242 257 275 277 280 284 283 286 296 301 298 310 321 332 338 335 338 222 175 175 171 170 169 169 167 168 174 178 179 184 183 181 182 178 180 148 195 171 203 259 213
258 264 277 276 276 275 274 274 277 277 277 288 299 295 294 296 306 310 320 309 233 195 181 173 171 173 171 170 169 175 181 185 187 186 183 184 183 185 188 178 156 181 193 191
251 250 256 256 264 274 277 277 272 270 274 281 284 279 276 286 293 294 306 293 229 191 187 179 173 178 173 170 172 181 183 183 189 189 187 188 190 192 193 192 190 195 192 188
245 242 247 254 259 266 268 267 266 263 272 287 289 274 269 274 281 286 292 273 212 177 175 181 183 180 174 175 178 185 187 186 190 191 193 195 194 196 199 199 199 195 185 178
251 242 233 236 248 259 262 257 266 279 281 290 295 291 285 281 277 281 285 253 209 191 184 186 191 191 193 192 186 186 190 186 196 196 199 203 201 204 205 203 203 202 199 190
240 237 237 245 255 263 269 273 270 273 271 275 283 283 283 282 278 279 293 283 234 223 213 207 204 204 206 204 199 196 192 191 195 197 201 205 208 212 212 212 210 211 210 194
243 253 256 255 260 263 271 277 277 276 272 272 274 268 274 275 280 288 293 319 328 269 246 220 205 208 211 210 208 207 202 199 206 210 207 208 212 216 218 216 214 214 209 189
238 241 248 253 256 255 262 270 275 279 273 267 261 258 262 266 261 244 236 215 229 253 267 240 179 217 220 213 209 213 213 209 209 211 213 208 214 220 220 218 217 216 212 203
223 219 220 228 240 247 258 275 282 274 267 266 257 252 255 256 240 230 229 251 279 298 302 290 244 239 231 215 210 217 216 215 215 213 213 216 218 221 223 223 223 221 219 213
214 213 212 223 243 261 271 282 279 270 274 272 256 245 245 247 244 241 241 272 323 344 312 281 262 257 241 234 223 225 216 213 216 218 217 220 223 226 229 227 226 223 222 222
212 213 222 242 252 262 274 286 280 272 274 268 261 255 246 241 243 258 271 279 289 1 289 280 291 353 301 265 238 231 223 219 220 223 221 221 223 226 228 227 225 224 222 223
209 198 228 250 269 272 277 269 259 255 251 252 253 249 263 285 279 273 290 315 295 340 276 282 0 355 301 264 241 231 226 224 225 223 222 224 225 227 226 224 223 224 224 226
63 69 252 235 23 15 355 319 265 234 234 256 300 307 276 263 282 330 341 71 52 343 300 57 360 286 271 257 239 230 228 225 222 220 219 219 222 223 224 224 226 227 228 232
91 93 100 119 131 137 107 65 36 35 28 37 43 50 53 55 59 8 17 53 62 60 63 103 211 268 260 273 239 229 226 223 225 225 215 220 223 221 225 230 231 232 233 235
87 88 91 103 120 143 139 114 59 8 15 43 53 58 60 57 60 69 89 86 74 63 51 45 40 37 32 19 37 176 201 181 196 217 218 230 245 239 230 235 241 243 245 244
92 89 90 84 86 102 111 99 78 43 30 54 67 62 58 58 67 72 75 79 76 69 60 52 44 45 47 41 46 57 68 73 86 88 69 49 28 23 22 359 326 296 267 241
Height
1481 1480 1481 1485 1487 1488 1490 1488 1492 1490 1489 1488 1489 1492 1494 1496 1498 1500 1502 1504 1506 1508 1511 1514 1516 1519 1522 1525 1527 1529 1531 1534 1535 1537 1538 1539 1540 1541 1541 1541 1541 1541 1541 1540
1487 1483 1483 1486 1484 1485 1487 1486 1486 1487 1488 1487 1490 1492 1494 1496 1497 1499 1500 1502 1504 1506 1508 1510 1513 1516 1519 1522 1524 1526 1529 1531 1532 1534 1536 1537 1538 1538 1539 1539 1539 1539 1540 1539
1488 1483 1486 1490 1483 1483 1485 1484 1485 1488 1487 1487 1490 1492 1494 1495 1496 1497 1498 1500 1501 1503 1505 1507 1509 1512 1515 1518 1521 1523 1525 1527 1529 1531 1533 1534 1535 1536 1537 1537 1537 1537 1538 1538
1484 1491 1502 1482 1477 1479 1482 1484 1484 1484 1485 1487 1490 1492 1493 1494 1495 1496 1497 1497 1498 1500 1502 1504 1507 1510 1512 1515 1517 1519 1522 1524 1526 1528 1529 1531 1532 1534 1534 1536 1536 1536 1537 1538
1484 1489 1486 1482 1480 1480 1483 1485 1485 1486 1487 1488 1489 1489 1490 1493 1494 1495 1495 1495 1495 1497 1499 1501 1503 1506 1509 1511 1514 1516 1518 1521 1523 1524 1526 1528 1530 1531 1533 1533 1534 1535 1536 1536
1484 1489 1489 1479 1478 1482 1484 1486 1486 1488 1488 1488 1488 1485 1486 1491 1492 1492 1493 1493 1493 1494 1496 1498 1500 1502 1505 1507 1510 1513 1515 1517 1520 1521 1523 1525 1527 1528 1530 1531 1533 1534 1534 1535
1483 1485 1477 1477 1480 1483 1490 1486 1486 1487 1488 1489 1489 1489 1491 1490 1490 1491 1491 1491 1491 1492 1494 1495 1497 1499 1501 1504 1507 1510 1513 1515 1517 1519 1521 1523 1524 1526 1527 1529 1530 1532 1533 1533
1480 1484 1482 1479 1479 1481 1484 1486 1486 1487 1488 1490 1490 1490 1490 1490 1489 1489 1489 1489 1490 1490 1491 1493 1495 1496 1498 1501 1504 1507 1509 1512 1514 1516 1518 1520 1522 1524 1525 1527 1528 1529 1530 1532
1476 1479 1481 1482 1483 1485 1486 1487 1487 1488 1488 1489 1489 1489 1489 1489 1488 1488 1488 1488 1488 1489 1489 1491 1492 1494 1496 1498 1501 1503 1506 1508 1511 1513 1515 1517 1519 1521 1522 1524 1526 1527 1529 1530
1479 1478 1481 1483 1484 1485 1486 1486 1487 1487 1488 1488 1488 1488 1488 1488 1487 1487 1487 1486 1486 1487 1488 1489 1490 1492 1494 1496 1498 1500 1502 1505 1508 1510 1511 1513 1516 1518 1520 1521 1523 1524 1526 1527
1479 1480 1482 1483 1484 1485 1485 1486 1486 1486 1487 1487 1487 1487 1487 1486 1486 1486 1486 1485 1485 1486 1487 1487 1488 1490 1491 1493 1495 1497 1499 1502 1505 1506 1509 1510 1512 1514 1516 1518 1519 1521 1523 1524
1476 1479 1480 1482 1483 1484 1484 1484 1484 1485 1485 1485 1485 1485 1485 1485 1484 1484 1484 1483 1483 1484 1485 1485 1486 1487 1489 1491 1492 1494 1496 1498 1501 1503 1505 1507 1508 1510 1512 1514 1514 1516 1518 1520
1479 1480 1481 1481 1482 1483 1483 1483 1483 1483 1483 1483 1483 1483 1483 1483 1482 1482 1482 1482 1481 1482 1482 1483 1484 1486 1487 1488 1489 1491 1493 1495 1497 1499 1501 1503 1504 1507 1508 1509 1510 1512 1514 1515
1479 1479 1479 1480 1480 1481 1481 1481 1481 1481 1481 1481 1481 1481 1481 1481 1480 1480 1480 1480 1479 1479 1480 1481 1482 1484 1485 1486 1487 1489 1491 1492 1493 1495 1497 1499 1501 1503 1505 1506 1507 1508 1510 1511
1477 1477 1478 1478 1478 1478 1478 1478 1478 1478 1479 1479 1479 1479 1479 1478 1478 1478 1478 1477 1477 1476 1477 1479 1479 1480 1482 1483 1483 1486 1487 1489 1490 1491 1493 1495 1497 1498 1500 1502 1504 1506 1506 1507
1474 1475 1475 1475 1475 1476 1476 1476 1476 1475 1476 1476 1476 1476 1476 1476 1476 1476 1476 1475 1474 1474 1475 1476 1476 1477 1479 1480 1480 1481 1483 1485 1486 1488 1490 1491 1492 1494 1496 1498 1499 1501 1503 1504
1471 1471 1472 1473 1473 1473 1474 1474 1474 1473 1473 1473 1473 1473 1473 1473 1473 1473 1473 1472 1472 1472 1473 1473 1474 1475 1477 1478 1478 1479 1480 1482 1483 1484 1486 1488 1490 1492 1493 1494 1495 1497 1499 1500
1469 1469 1469 1470 1471 1471 1472 1472 1472 1472 1471 1470 1470 1470 1470 1470 1470 1470 1470 1470 1470 1470 1471 1471 1471 1473 1474 1474 1475 1477 1478 1479 1480 1481 1482 1484 1486 1488 1489 1490 1491 1493 1494 1495
1465 1465 1466 1467 1468 1469 1469 1469 1469 1469 1468 1468 1468 1468 1467 1467 1468 1468 1468 1468 1468 1469 1469 1469 1469 1470 1470 1472 1473 1474 1475 1476 1477 1478 1480 1481 1483 1484 1486 1487 1488 1489 1490 1491
1461 1462 1463 1465 1466 1466 1466 1466 1466 1466 1465 1465 1465 1465 1464 1464 1465 1466 1466 1466 1466 1466 1466 1466 1467 1467 1468 1469 1469 1471 1472 1473 1474 1475 1476 1478 1479 1481 1482 1483 1484 1484 1486 1486
1460 1460 1461 1462 1463 1463 1463 1464 1463 1463 1462 1462 1462 1462 1462 1462 1463 1463 1463 1463 1464 1463 1464 1464 1464 1465 1465 1466 1466 1467 1468 1469 1470 1471 1472 1474 1475 1476 1477 1478 1479 1480 1481 1482
1458 1459 1459 1460 1461 1460 1461 1461 1461 1460 1460 1460 1460 1460 1460 1460 1461 1461 1461 1462 1462 1461 1462 1463 1463 1462 1462 1462 1463 1464 1465 1466 1467 1468 1469 1470 1471 1472 1473 1474 1475 1475 1476 1477
1457 1457 1457 1458 1458 1458 1458 1458 1458 1458 1458 1458 1458 1458 1459 1459 1459 1460 1460 1460 1459 1459 1460 1460 1460 1459 1459 1459 1460 1460 1461 1462 1463 1465 1466 1466 1467 1468 1469 1470 1471 1471 1472 1473
1455 1456 1456 1456 1456 1456 1456 1457 1457 1457 1457 1457 1457 1456 1457 1457 1457 1457 1457 1457 1457 1457 1458 1458 1457 1457 1457 1458 1458 1458 1459 1459 1461 1461 1462 1463 1464 1464 1465 1466 1467 1467 1468 1468
1455 1455 1455 1455 1455 1456 1456 1456 1456 1456 1456 1456 1456 1455 1456 1456 1456 1456 1456 1456 1456 1456 1457 1456 1456 1456 1457 1457 1456 1456 1457 1457 1458 1459 1459 1460 1461 1462 1462 1463 1464 1464 1464 1464
1455 1455 1455 1455 1456 1456 1456 1456 1456 1456 1455 1455 1455 1455 1455 1455 1455 1455 1456 1456 1456 1456 1456 1456 1456 1456 1456 1455 1455 1455 1455 1456 1456 1457 1457 1458 1458 1459 1460 1460 1460 1460 1460 1460
1456 1456 1456 1456 1456 1456 1456 1456 1456 1456 1456 1455 1455 1455 1455 1455 1455 1456 1456 1456 1456 1456 1456 1456 1456 1456 1456 1455 1455 1454 1454 1455 1455 1455 1455 1456 1456 1456 1457 1457 1457 1457 1457 1456